Overview Statistics Trail Chart Weather Telemetry Raw packets
 

This is the latest recevied weather packets stored in our database for station/object VE8SKI. If no packets are shown the sender has not sent any weather packets the latest 10 day(s).

<< 37 38 39 40 41 42 43 >>
Time Temp. Humidity Pressure Rain* Wind** Luminosity Snow
1777851751 1.67° C 71% 1019.8 hPa 0 mm 2.24 m/s, 83° - -
1777851452 1.67° C 71% 1019.7 hPa 0 mm 2.24 m/s, 105° - -
1777851152 1.67° C 71% 1019.7 hPa 0 mm 2.24 m/s, 76° - -
1777850852 1.67° C 71% 1019.6 hPa 0 mm 1.79 m/s, 52° - -
1777850550 1.67° C 71% 1019.7 hPa 0 mm 2.24 m/s, 111° - -
1777850250 1.67° C 71% 1019.4 hPa 0 mm 1.79 m/s, 66° - -
1777849951 1.67° C 71% 1019.3 hPa 0 mm 1.79 m/s, 82° - -
1777849651 1.67° C 71% 1019.2 hPa 0 mm 2.24 m/s, 34° - -
1777849351 1.67° C 71% 1019.1 hPa 0 mm 2.24 m/s, 42° - -
1777849052 1.67° C 71% 1019.1 hPa 0 mm 0.89 m/s, 60° - -
1777848749 1.67° C 70% 1019 hPa 0 mm 1.79 m/s, 69° - -
1777848450 1.67° C 69% 1018.9 hPa 0 mm 1.79 m/s, 55° - -
1777848150 1.67° C 69% 1018.9 hPa 0 mm 1.34 m/s, 75° - -
1777847851 1.67° C 69% 1018.7 hPa 0 mm 1.79 m/s, 120° - -
1777847551 1.67° C 70% 1018.7 hPa 0 mm 1.34 m/s, 66° - -
1777847251 1.67° C 69% 1018.6 hPa 0 mm 2.68 m/s, 77° - -
1777846949 1.67° C 69% 1018.6 hPa 0 mm 2.68 m/s, 91° - -
1777846649 1.67° C 70% 1018.5 hPa 0 mm 0.89 m/s, 113° - -
1777846350 1.67° C 70% 1018.5 hPa 0 mm 1.79 m/s, 55° - -
1777846050 1.67° C 70% 1018.3 hPa 0 mm 1.34 m/s, 48° - -
1777845751 1.67° C 69% 1018.3 hPa 0 mm 2.68 m/s, 53° - -
1777845451 1.67° C 69% 1018.2 hPa 0 mm 1.34 m/s, 63° - -
1777845148 1.67° C 69% 1018.2 hPa 0 mm 1.79 m/s, 28° - -
1777844849 1.67° C 69% 1018.2 hPa 0 mm 1.79 m/s, 76° - -
1777844549 1.67° C 69% 1018.2 hPa 0 mm 0 m/s - -

* Rain latest hour (hover to see other rain measurements)
** Current wind speed in m/s (hover to see current wind gust speed)